Cordova, AK

11:00 PM AKST on November 22, 2017 (GMT -0900)
Cordova-Smith

Weather History for PACV - January, 2013

Change the Weather History Date:

Thursday, January 3, 2013

  Actual Average Record
Temperature  
Mean Temperature 37 °F -  
Max Temperature 39 °F 28 °F 45 °F (2003)
Min Temperature 35 °F 13 °F -19 °F (1975)
Degree Days  
Heating Degree Days 28    
Moisture  
Dew Point 31 °F    
Average Humidity 77    
Maximum Humidity 87    
Minimum Humidity 67    
Precipitation  
Precipitation 0.07 in - - ()
Snow  
Snow 0.00 in - - ()
Snow Depth 1.00 in    
Sea Level Pressure  
Sea Level Pressure 29.74 in    
Wind  
Wind Speed 10 mph (East)    
Max Wind Speed 18 mph    
Max Gust Speed 28 mph    
Visibility 10 miles    
Events Rain    
Averages and records for this station are not official NWS values.
T = Trace of Precipitation, MM = Missing Value Source: NWS Daily Summary

Daily Weather History Graph

Daily Weather History Graph

Search for Another Location

Airport or City:

Trip Planner

Search our weather history database for the weather conditions in past years. The results will help you decide how hot, cold, wet, or windy it might be!

Date:

Astronomy

Jan. 03, 2013 Rise Set
Actual Time 9:47 AM AKST 3:46 PM AKST
Civil Twilight 8:49 AM AKST 4:44 PM AKST
Nautical Twilight 7:52 AM AKST 5:41 PM AKST
Astronomical Twilight 7:00 AM AKST 6:33 PM AKST
Moon No Moon Rise 11:08 AM AKST (1/3)
Length of Visible Light 7h 54m
Length of Day
5h 59m
Waning Gibbous, 64% of the Moon is Illuminated
Jan 3
Waning Gibbous
Jan 4
Last Quarter
Jan 11
New
Jan 18
First Quarter
Jan 26
Full

Hourly Weather History & Observations

Time (AKST) Temp. Windchill Dew Point Humidity Pressure Visibility Wind Dir Wind Speed Gust Speed Precip Events Conditions
12:23 AM 37.4 °F 28.9 °F 30.2 °F 75% 29.78 in 10.0 mi East 13.8 mph 20.7 mph 0.00 in   Mostly Cloudy
12:39 AM 37.4 °F 29.8 °F 32.0 °F 81% 29.78 in 9.0 mi ESE 11.5 mph 21.9 mph 0.00 in Rain Light Rain
12:53 AM 37.0 °F 31.0 °F 32.0 °F 82% 29.78 in 10.0 mi East 8.1 mph - 0.00 in Rain Light Rain
1:45 AM 35.6 °F 30.7 °F 32.0 °F 87% 29.78 in 10.0 mi East 5.8 mph - 0.02 in Rain Light Rain
1:53 AM 36.0 °F 30.3 °F 32.0 °F 86% 29.78 in 10.0 mi East 6.9 mph - 0.02 in   Overcast
3:53 AM 37.9 °F 32.1 °F 30.9 °F 76% 29.77 in 10.0 mi East 8.1 mph 20.7 mph 0.01 in   Overcast
4:53 AM 39.0 °F 30.3 °F 30.0 °F 70% 29.77 in 10.0 mi ESE 16.1 mph 26.5 mph N/A   Overcast
5:53 AM 37.0 °F 28.5 °F 30.9 °F 79% 29.77 in 10.0 mi ESE 13.8 mph 24.2 mph 0.00 in Rain Light Rain
6:13 AM 35.6 °F 27.5 °F 30.2 °F 81% 29.76 in 6.0 mi East 11.5 mph 27.6 mph 0.01 in Rain Light Rain
6:30 AM 35.6 °F 30.7 °F 32.0 °F 87% 29.76 in 10.0 mi East 5.8 mph - 0.01 in Rain Light Rain
6:53 AM 37.0 °F 28.5 °F 30.9 °F 79% 29.76 in 10.0 mi ESE 13.8 mph 23.0 mph 0.01 in Rain Light Rain
7:53 AM 37.0 °F 29.8 °F 30.9 °F 79% 29.76 in 10.0 mi East 10.4 mph 16.1 mph 0.00 in   Overcast
8:45 AM 37.4 °F 28.5 °F 30.2 °F 75% 29.76 in 10.0 mi ESE 15.0 mph 24.2 mph 0.00 in Rain Light Rain
8:53 AM 37.0 °F 27.0 °F 30.9 °F 79% 29.76 in 10.0 mi East 18.4 mph 25.3 mph 0.01 in Rain Light Rain
9:53 AM 36.0 °F 31.1 °F 32.0 °F 86% 29.76 in 10.0 mi East 5.8 mph - 0.01 in   Overcast
10:41 AM 35.6 °F 31.7 °F 32.0 °F 87% 29.77 in 10.0 mi East 4.6 mph - 0.00 in Rain Light Rain
10:53 AM 37.0 °F 31.6 °F 32.0 °F 82% 29.77 in 10.0 mi East 6.9 mph - 0.01 in Rain Light Rain
11:10 AM 37.4 °F 30.3 °F 30.2 °F 75% 29.77 in 10.0 mi East 10.4 mph 21.9 mph 0.00 in Rain Light Rain
11:34 AM 37.4 °F 30.3 °F 30.2 °F 75% 29.76 in 8.0 mi East 10.4 mph 17.3 mph 0.00 in Rain Light Rain
11:53 AM 37.9 °F 33.5 °F 30.9 °F 76% 29.75 in 10.0 mi Variable 5.8 mph - 0.00 in   Overcast
12:53 PM 39.0 °F 33.4 °F 28.9 °F 67% 29.74 in 10.0 mi ESE 8.1 mph - N/A   Overcast
1:53 PM 37.9 °F 32.1 °F 30.0 °F 73% 29.73 in 10.0 mi East 8.1 mph 19.6 mph 0.00 in   Overcast
2:05 PM 39.2 °F 33.0 °F 30.2 °F 70% 29.73 in 10.0 mi ESE 9.2 mph 16.1 mph N/A   Overcast
2:53 PM 37.9 °F 32.7 °F 30.0 °F 73% 29.72 in 10.0 mi East 6.9 mph 16.1 mph 0.00 in Rain Light Rain
3:53 PM 37.9 °F 30.5 °F 30.0 °F 73% 29.70 in 10.0 mi East 11.5 mph 18.4 mph 0.00 in   Overcast
4:53 PM 39.0 °F 31.8 °F 28.9 °F 67% 29.70 in 10.0 mi ESE 11.5 mph 20.7 mph 0.00 in Rain Light Rain
5:53 PM 39.0 °F 32.3 °F 28.9 °F 67% 29.70 in 10.0 mi East 10.4 mph 20.7 mph 0.00 in   Overcast
6:53 PM 36.0 °F 28.5 °F 30.9 °F 82% 29.70 in 10.0 mi East 10.4 mph 16.1 mph 0.00 in Rain Light Rain
7:53 PM 37.0 °F 29.3 °F 30.0 °F 76% 29.70 in 10.0 mi East 11.5 mph 20.7 mph 0.00 in Rain Light Rain
8:53 PM 37.0 °F 33.3 °F 30.0 °F 76% 29.70 in 10.0 mi East 4.6 mph - 0.00 in   Overcast
9:53 PM 37.9 °F 33.5 °F 28.9 °F 70% 29.70 in 10.0 mi East 5.8 mph - 0.00 in   Overcast
10:41 PM 37.4 °F 32.8 °F 30.2 °F 75% 29.70 in 10.0 mi East 5.8 mph - 0.00 in Rain Light Rain
10:53 PM 37.0 °F 32.4 °F 30.0 °F 76% 29.70 in 10.0 mi East 5.8 mph - 0.00 in   Overcast
11:42 PM 35.6 °F 30.7 °F 30.2 °F 81% 29.71 in 10.0 mi SE 5.8 mph - 0.00 in Rain Light Rain
11:53 PM 36.0 °F 31.1 °F 30.0 °F 79% 29.71 in 10.0 mi ESE 5.8 mph - 0.00 in   Overcast